Home   Weather   Winnipeg   Past weeks
Flag for Canada

Past Weather in Winnipeg, Manitoba, Canada — Yesterday and Last 2 Weeks

Now
49 °F

Cool.


Feels Like: 49 °F
Forecast: 44 / 37 °F
Wind: 2 mph from West

Location: Winnipeg The Forks Man

Current Time: Oct 21, 2019 at 12:24:32 am

Latest Report: Oct 20, 2019 at 11:00 pm


Visibility: N/A

Pressure: 29.85 "Hg

Humidity: 75%

Dew Point: 42 °F

Location of WinnipegLocation

Past Weather in Winnipeg — Graph

°F

Winnipeg Temperature Yesterday

Maximum temperature yesterday: 54 °F (at 3:00 pm)
Minimum temperature yesterday: 38 °F (at 8:00 am)
Average temperature yesterday: 46 °F

High & Low Weather Summary for the Past Weeks

 TemperatureHumidityPressure
High66 °F (Oct 7, 4:00 pm)100% (Oct 10, 1:00 pm)30.19 "Hg (Oct 10, 1:00 pm)
Low31 °F (Oct 11, 8:00 am)31% (Oct 7, 5:00 pm)29.36 "Hg (Oct 12, 12:00 am)
Average42 °F81%29.77 "Hg
* Reported Oct 5 11:00 pm — Oct 20 11:00 pm, Winnipeg. Weather by CustomWeather, © 2019

Note: Actual official high and low records may vary slightly from our data, if they occured in-between our weather recording intervals... More about our weather records

Advertising

Winnipeg Weather History for the Previous 24 Hours

Scroll right to see more
 ConditionsComfort  
Time TempWeatherWind HumidityBarometerVisibility
11:00 pm
Sun, Oct 20
49 °FCool.2 mph75%29.85 "HgN/A
10:00 pm48 °FCool.3 mph77%29.85 "HgN/A
9:00 pm47 °FCool.2 mph82%29.85 "HgN/A
8:00 pm49 °FCool.1 mph79%29.83 "HgN/A
7:00 pm51 °FCool.1 mph75%29.82 "HgN/A
6:00 pm53 °FCool.2 mph70%29.81 "HgN/A
5:00 pm54 °FCool.3 mph65%29.80 "HgN/A
4:00 pm54 °FCool.3 mph63%29.79 "HgN/A
3:00 pm54 °FCool.6 mph60%29.78 "HgN/A
2:00 pm51 °FCool.5 mph66%29.78 "HgN/A
1:00 pm50 °FCool.3 mph67%29.77 "HgN/A
12:00 pm47 °FCool.3 mph69%29.76 "HgN/A
11:00 am43 °FQuite cool.1 mph76%29.75 "HgN/A
10:00 am40 °FQuite cool.3 mph79%29.75 "HgN/A
9:00 am38 °FChilly.5 mph86%29.73 "HgN/A
8:00 am38 °FChilly.3 mph88%29.71 "HgN/A
7:00 am38 °FChilly.3 mph88%29.69 "HgN/A
6:00 am38 °FChilly.2 mph88%29.68 "HgN/A
5:00 am40 °FChilly.2 mph85%29.66 "HgN/A
4:00 am40 °FQuite cool.1 mph83%29.65 "HgN/A
3:00 am44 °FQuite cool.2 mph77%29.64 "HgN/A
2:00 am44 °FQuite cool.2 mph79%29.62 "HgN/A
1:00 am42 °FQuite cool.2 mph85%29.62 "HgN/A
12:00 am42 °FQuite cool.2 mph87%29.62 "HgN/A
Weather by CustomWeather, © 2019

See weather overview